Wind_Speed
3 3 2 4 3 4 4 7 5 6 4 1 2 1 3 5 3 3 4 8 25 22 26 35 28 14 17 24 29 34 34 34 34 35 37 38 39 39 36 37 35 35 31 29 30 29 28 27 25
1 2 3 2 4 2 5 3 4 2 4 5 3 2 3 4 4 2 4 16 26 17 17 29 34 22 16 24 30 34 35 35 35 36 40 41 41 39 37 38 36 35 32 29 28 26 27 26 23
2 3 3 3 3 5 4 4 6 5 5 4 2 2 3 1 1 4 6 12 26 25 15 32 38 38 35 30 33 34 34 34 35 39 43 42 41 38 38 39 38 35 31 27 26 27 26 23 19
2 4 4 3 7 10 6 16 6 4 3 4 1 4 2 12 4 13 9 16 18 19 23 32 39 47 46 43 37 35 36 36 39 43 41 41 39 38 40 39 38 35 31 28 28 26 25 25 23
1 3 3 3 7 8 13 9 5 5 1 4 5 3 3 3 21 13 9 17 18 12 32 26 36 35 36 37 40 39 38 37 40 44 43 40 39 38 39 39 36 34 32 29 26 24 24 26 23
3 3 2 3 7 8 8 7 6 4 1 3 2 1 5 3 9 13 6 10 8 16 25 17 19 16 40 50 45 41 39 39 43 42 42 41 39 37 38 38 35 33 30 27 24 21 23 28 25
5 4 4 5 12 11 5 1 5 5 5 3 4 4 6 9 13 7 6 15 20 14 26 37 19 8 5 54 49 45 40 41 45 44 42 41 39 37 37 36 34 32 29 26 23 20 22 23 24
5 4 3 5 8 11 7 1 3 7 2 4 1 4 6 6 14 9 11 16 16 18 21 27 17 16 24 40 48 44 43 40 42 42 41 39 38 37 36 35 33 30 27 25 23 20 21 19 21
3 2 5 8 4 6 2 2 2 1 6 1 3 3 6 10 8 7 11 12 14 19 15 21 24 18 8 46 38 33 34 40 40 40 40 37 37 35 34 33 31 29 27 24 22 20 18 18 20
3 3 8 7 5 8 4 3 5 5 4 2 4 4 4 8 4 4 4 4 12 16 18 20 23 24 32 26 30 24 30 35 38 39 40 38 36 34 33 32 29 27 25 22 22 21 16 14 14
4 6 15 19 6 8 0 6 3 8 3 4 3 4 3 5 3 3 5 4 4 18 24 24 32 35 40 41 43 23 26 31 35 36 37 36 35 34 34 32 28 27 23 21 19 16 13 14 12
3 10 11 8 7 2 3 2 6 2 3 3 9 8 5 4 1 1 5 6 12 18 26 31 34 39 42 40 43 41 32 30 33 34 34 34 33 34 34 32 29 26 22 20 17 14 14 11 11
6 8 9 7 8 4 0 7 9 4 1 6 10 9 12 5 3 5 7 9 13 18 23 32 34 34 39 42 45 41 38 35 31 30 32 32 33 33 32 30 28 25 22 18 15 13 12 11 12
6 6 11 7 7 3 1 8 7 4 6 4 7 3 7 8 6 4 12 12 12 19 23 28 34 39 39 39 39 39 37 35 35 31 30 32 32 32 31 27 26 24 21 16 15 12 10 10 9
6 8 10 7 3 2 3 1 4 13 9 10 5 10 7 5 6 6 10 16 20 17 23 24 30 35 38 41 41 41 33 38 34 31 26 28 27 27 26 25 23 21 20 16 14 10 11 12 9
6 5 4 11 3 4 6 10 6 13 12 7 8 8 12 8 9 8 12 16 21 20 23 23 23 28 34 36 34 35 33 40 33 30 25 23 21 24 22 23 20 19 18 17 15 13 14 13 11
3 6 6 11 7 5 5 7 6 10 9 7 6 6 5 8 12 11 13 14 19 21 21 25 27 27 31 30 30 30 32 35 33 29 25 20 23 23 20 18 17 19 19 20 19 17 16 16 16
7 4 5 8 6 5 4 6 10 10 12 11 8 7 6 8 8 16 15 14 14 19 22 24 27 30 34 32 31 30 32 33 30 28 26 21 17 19 17 17 19 21 25 23 22 19 17 17 17
5 11 14 16 13 6 7 6 9 10 6 11 8 9 10 11 7 13 18 17 16 20 23 25 28 34 36 33 33 32 31 31 32 32 26 18 19 18 18 19 24 24 26 24 23 22 20 19 19
9 13 19 18 5 5 5 5 5 16 12 18 17 14 12 8 10 12 16 17 18 20 24 27 29 32 33 35 33 29 32 30 26 29 34 25 19 20 24 25 25 27 25 25 26 24 23 21 21
15 13 18 8 5 1 1 5 3 7 5 8 13 15 12 15 14 14 16 17 18 20 24 30 30 32 32 32 31 30 33 31 31 33 34 31 26 29 29 30 29 28 28 29 29 27 27 26 22
11 15 10 5 3 2 1 5 5 5 8 15 14 15 16 16 14 12 17 21 25 25 27 27 29 32 35 34 29 28 27 26 29 31 36 38 36 37 36 33 31 31 31 31 31 29 29 27 25
13 18 6 4 3 2 3 1 7 4 6 10 16 19 19 20 19 18 19 28 32 31 33 33 33 32 34 37 33 33 29 29 30 33 36 36 35 36 38 37 34 32 33 32 34 33 32 32 29
17 5 4 4 2 2 5 6 6 4 10 18 18 21 22 21 21 19 26 27 28 30 33 35 34 36 37 37 38 35 34 32 31 35 37 39 39 40 40 36 34 35 32 34 33 33 32 36 35
7 5 2 3 3 6 3 3 11 7 7 16 23 23 23 22 21 20 20 24 29 33 35 35 35 37 39 36 37 39 40 40 35 38 38 33 36 38 43 41 40 39 35 31 29 32 32 35 30
8 9 6 5 4 4 4 5 5 10 9 9 14 24 22 21 20 22 24 30 33 38 40 39 39 38 39 44 40 42 43 40 42 38 42 40 39 42 44 45 43 42 34 28 27 29 28 28 28
7 5 9 6 1 1 4 6 7 2 4 3 8 14 20 20 21 23 22 31 33 37 42 44 41 42 42 41 40 41 45 41 40 41 43 46 44 43 43 44 44 39 30 26 25 26 28 24 22
10 7 4 1 7 4 5 4 5 4 5 4 7 12 16 20 18 17 17 27 33 37 41 39 39 41 41 39 40 41 42 47 42 43 49 41 41 39 36 37 33 30 29 25 27 26 24 22 22
2 4 3 6 6 6 2 5 7 9 7 8 9 9 13 15 17 18 18 30 36 38 38 40 40 37 37 36 36 38 40 46 43 38 35 36 23 26 26 21 33 33 26 25 27 26 25 26 24
11 13 10 5 5 3 4 8 5 9 7 7 8 10 9 10 14 16 18 25 31 35 35 37 37 36 36 40 41 42 40 39 36 29 29 35 21 26 26 38 35 32 26 25 25 25 23 22 22
Wind_Direction
302 327 13 67 46 63 286 274 289 336 347 9 260 20 32 26 34 158 268 197 164 157 161 161 147 172 172 162 156 151 149 145 139 136 131 129 126 125 126 121 119 117 116 113 109 108 107 107 107
2 92 56 85 87 33 271 247 78 169 245 270 144 73 87 134 144 173 277 195 179 174 159 166 160 166 184 173 164 156 154 149 143 138 135 132 130 131 130 125 122 120 117 115 113 111 106 102 98
332 165 89 108 135 202 236 269 147 226 267 212 162 94 106 41 129 159 225 196 200 212 182 165 172 185 201 184 170 161 154 149 143 140 136 135 135 134 133 128 126 123 119 116 117 114 105 94 97
58 27 24 104 255 267 223 276 280 240 253 357 27 35 55 71 357 317 285 207 209 224 196 188 182 176 184 180 172 166 158 154 148 142 138 138 137 137 133 130 128 125 122 120 121 114 103 86 101
67 73 45 333 279 255 282 233 200 212 235 22 11 349 160 188 344 330 339 200 198 199 203 186 184 181 176 178 172 167 160 155 147 142 141 141 140 138 134 132 130 127 123 120 120 115 104 88 102
16 97 51 268 268 292 292 172 175 81 92 342 58 335 265 149 39 15 351 179 191 190 205 202 182 203 191 189 169 164 160 156 148 145 143 143 140 139 136 135 133 127 123 118 115 116 112 92 93
147 93 225 242 280 298 266 318 136 131 129 232 166 187 255 110 27 57 84 115 118 137 150 155 149 198 318 194 171 160 162 157 150 148 146 143 142 141 141 137 133 129 124 117 111 109 115 97 90
115 101 286 243 272 281 257 316 67 115 243 112 159 249 313 3 64 68 110 99 120 133 151 170 196 224 295 172 148 152 156 151 146 148 147 145 144 143 144 139 136 131 124 117 109 108 108 91 81
117 77 271 261 272 268 283 310 43 108 127 342 326 311 331 43 53 56 66 94 108 108 146 155 138 161 136 71 117 135 144 147 146 147 148 147 146 144 144 142 140 133 125 119 111 113 113 101 88
127 130 249 237 284 265 276 35 147 115 159 231 263 282 334 60 51 61 64 97 127 134 123 136 140 129 138 117 107 128 141 139 139 145 150 153 149 147 146 144 141 133 127 124 120 116 120 114 99
205 225 273 279 225 233 315 27 105 142 54 230 196 142 88 77 62 84 92 157 127 148 136 135 131 136 135 138 133 145 144 141 144 150 152 152 151 149 148 146 144 137 134 133 134 131 126 118 112
300 260 259 259 208 224 350 123 57 15 194 91 120 149 156 119 313 103 123 146 136 141 137 143 137 135 137 139 140 149 148 148 150 152 152 156 154 153 151 151 147 142 143 145 139 132 124 128 128
210 269 293 273 256 271 190 76 128 47 356 92 147 193 146 123 134 165 159 154 141 136 145 150 152 151 147 145 143 152 151 150 149 153 159 164 159 157 156 151 151 149 153 156 145 142 144 138 133
284 298 293 280 283 265 126 144 100 238 176 161 195 83 81 122 147 162 146 140 135 146 152 154 156 153 149 144 148 150 153 156 159 162 163 167 162 161 160 154 157 156 163 167 157 157 158 151 145
292 317 314 288 288 284 127 322 122 171 170 196 220 107 98 127 173 193 163 153 149 148 155 148 147 148 149 151 153 157 154 162 163 157 155 163 162 165 161 162 162 161 175 177 170 170 171 164 162
333 318 331 282 194 209 117 269 181 169 178 169 141 137 134 159 185 157 159 148 162 147 159 157 153 155 155 159 159 158 158 157 151 152 156 158 167 177 168 175 171 174 181 188 186 188 181 185 187
322 261 252 293 268 147 163 245 157 170 139 153 135 122 128 152 167 165 162 161 160 150 145 164 169 163 153 160 163 156 156 158 158 156 157 164 184 180 173 171 177 187 198 197 196 194 196 193 196
226 249 294 284 292 170 175 230 141 187 174 176 151 147 168 177 197 163 162 158 155 165 161 150 159 161 165 170 168 169 173 166 169 172 171 182 182 187 185 190 195 202 198 198 201 203 199 207 211
269 287 278 278 266 153 228 234 209 171 194 165 155 171 183 200 210 173 162 169 170 170 177 167 160 165 167 166 161 165 173 173 179 189 196 193 200 201 200 204 204 202 202 207 206 202 208 212 210
251 266 278 281 269 155 233 255 184 174 193 177 173 182 188 183 185 186 168 175 179 179 183 183 178 172 172 176 180 183 185 191 205 211 221 227 223 224 219 217 213 214 214 214 210 211 211 215 212
248 248 265 251 318 348 136 312 302 167 185 179 181 186 184 179 187 186 187 187 184 190 193 189 188 186 186 187 188 189 192 202 213 221 220 229 237 233 228 226 224 221 221 222 218 218 215 213 211
256 257 250 259 56 237 66 283 272 193 175 185 187 188 191 185 195 190 187 187 194 200 197 195 192 192 193 195 194 193 198 208 214 220 223 235 240 236 231 228 228 229 228 227 225 224 221 223 217
240 253 242 264 290 35 314 82 268 192 197 191 187 195 193 191 186 192 192 193 197 196 197 197 195 199 201 199 200 200 208 215 220 226 230 229 225 223 224 230 229 227 232 234 228 224 224 224 224
245 217 55 36 85 326 249 170 272 236 196 191 194 194 192 190 192 195 195 191 195 196 195 199 199 203 204 205 205 211 215 221 222 221 222 225 225 227 228 230 232 230 233 234 227 231 229 227 229
196 95 340 333 354 226 295 191 238 280 228 181 185 193 191 192 187 190 192 193 194 195 196 200 203 207 208 213 220 223 225 224 222 225 226 223 225 224 225 228 230 230 228 235 232 232 228 224 233
194 166 160 200 221 251 289 240 248 256 220 194 182 190 186 187 190 191 194 193 195 196 198 199 204 210 213 216 221 225 224 227 226 225 225 223 222 225 225 228 230 229 225 232 228 227 226 231 228
211 161 181 132 264 71 254 297 316 58 83 154 169 168 185 189 194 198 197 196 196 197 202 203 204 210 214 216 219 221 226 225 225 224 227 228 226 227 230 229 227 229 217 217 224 225 224 217 215
180 162 93 8 178 228 271 251 235 288 217 207 146 181 191 195 195 199 203 201 203 206 210 210 214 212 215 219 223 223 222 225 225 227 227 231 233 231 231 230 231 220 212 219 225 219 215 210 218
147 165 145 155 155 175 259 262 212 228 214 192 195 187 191 188 193 195 202 205 206 207 208 212 216 219 218 217 220 220 220 226 224 222 227 231 231 224 224 242 233 216 208 214 215 215 212 214 206
224 197 185 157 208 186 182 249 260 227 235 197 209 197 188 185 195 199 204 201 205 209 209 210 212 216 223 223 221 225 223 228 222 219 229 220 211 269 247 241 219 207 210 209 206 207 208 206 203
Height
786 787 787 787 815 823 825 806 786 786 777 768 763 765 770 776 777 793 772 770 772 773 774 769 773 790 797 794 795 792 796 797 797 800 800 805 809 813 818 821 827 827 835 839 838 841 842 844 844
785 786 787 797 824 834 825 793 791 782 772 766 765 765 769 775 772 775 773 770 771 773 774 776 766 782 796 799 800 796 796 796 798 797 800 806 808 814 818 821 828 832 835 840 841 843 844 847 847
785 786 795 809 828 829 820 788 787 781 772 768 766 765 771 775 771 771 771 770 772 770 780 776 771 769 790 800 798 797 797 799 799 802 804 808 809 814 820 822 827 833 838 841 844 846 847 848 848
785 788 798 813 817 801 796 782 772 778 771 766 767 770 772 776 774 771 768 768 766 768 774 776 768 769 784 784 791 796 797 799 799 802 806 808 813 817 820 825 829 833 838 843 845 848 850 850 849
785 794 813 816 810 792 772 769 770 776 772 769 769 772 772 767 764 766 763 763 764 763 767 771 774 768 778 777 786 793 797 803 803 803 806 811 816 818 822 826 832 836 840 843 847 849 851 852 851
794 799 820 826 806 785 772 760 765 770 770 770 768 769 764 754 755 760 764 763 757 761 765 770 776 776 779 777 777 790 797 803 801 807 808 811 817 822 825 828 833 837 842 846 849 851 854 854 854
796 808 818 812 800 787 767 756 762 767 771 769 764 770 754 756 756 759 763 760 759 760 755 768 772 775 780 778 777 782 794 802 799 805 811 812 816 823 827 830 835 839 843 847 851 853 855 857 857
788 800 805 804 797 790 764 758 758 766 772 766 766 769 762 759 758 761 761 757 760 766 765 769 773 760 763 744 768 786 796 801 801 806 814 815 819 824 829 832 837 841 844 848 852 856 858 859 859
778 807 815 803 788 776 758 760 760 761 769 770 770 767 765 759 762 762 760 762 763 768 768 768 769 768 769 729 772 795 797 804 806 809 813 821 822 825 831 835 839 842 845 850 853 857 859 862 862
785 808 795 779 773 771 759 759 762 770 773 769 766 764 762 760 764 764 766 765 766 767 768 768 770 773 771 781 789 798 807 806 805 812 813 821 824 827 832 837 842 844 848 851 854 857 861 863 865
780 793 771 766 765 761 756 756 756 765 771 765 764 765 763 762 764 767 768 770 769 766 769 769 770 772 771 777 786 804 806 806 808 813 815 824 826 828 833 837 843 845 849 852 855 858 861 864 866
779 769 766 760 758 751 754 754 766 767 764 760 759 760 763 763 767 769 770 771 772 769 770 772 772 775 779 784 788 799 806 808 812 814 817 824 829 830 834 838 842 844 850 854 856 859 862 865 867
774 766 758 754 752 748 746 758 767 773 765 761 757 754 750 760 768 771 770 771 773 772 771 774 776 779 784 783 782 795 804 808 812 815 820 827 829 831 836 838 841 844 850 855 855 859 863 865 867
763 762 759 753 751 747 750 761 758 772 764 760 751 754 754 760 767 770 774 772 773 772 774 774 777 779 781 782 786 794 802 809 814 819 823 827 830 833 837 838 841 845 850 855 855 858 861 864 867
761 768 761 752 748 750 748 758 766 764 762 759 754 764 763 766 769 769 771 775 775 776 775 778 779 779 782 785 791 797 804 811 816 819 824 829 831 835 837 840 841 845 850 854 855 858 860 863 866
772 770 779 751 748 749 752 771 762 762 758 758 761 763 768 770 771 769 771 775 778 776 777 779 781 781 785 789 795 800 807 811 814 820 826 829 831 836 835 840 841 846 849 853 854 856 859 862 865
781 789 778 765 743 751 754 763 756 760 754 757 759 763 769 774 775 770 770 774 776 780 782 785 785 786 790 797 801 804 809 813 815 820 823 829 834 835 836 839 841 845 849 851 853 855 857 859 863
791 785 769 770 751 748 756 759 763 758 755 759 762 766 771 771 775 774 773 775 780 784 788 788 788 791 796 801 803 806 811 813 815 819 824 830 833 834 834 836 840 843 847 848 850 853 855 859 861
772 776 776 758 744 746 752 755 751 759 761 763 761 765 769 770 773 774 777 780 783 784 786 787 789 792 795 800 804 808 810 811 813 817 823 826 828 829 830 834 837 841 842 843 847 850 852 856 859
770 775 769 751 734 744 742 746 742 754 752 751 756 763 764 767 771 773 774 777 779 781 783 787 789 791 794 799 804 809 810 812 815 818 818 821 824 826 830 832 834 836 839 840 844 846 848 853 856
766 772 764 756 742 737 742 752 739 746 747 749 749 752 756 760 766 768 771 774 777 780 781 784 787 791 797 803 808 810 813 813 814 816 817 818 821 825 827 830 832 833 835 837 840 841 844 846 852
772 747 746 745 754 771 744 780 751 736 741 745 744 749 753 756 762 764 766 769 771 775 781 785 788 792 796 801 805 807 807 809 810 812 816 818 819 821 823 825 827 828 831 833 835 839 840 844 847
757 741 741 739 749 756 757 770 752 738 745 740 742 743 747 749 754 758 760 762 765 772 776 781 786 791 795 797 800 802 804 806 807 810 811 812 814 816 817 819 820 823 826 827 829 833 834 838 841
733 738 745 749 759 779 757 762 756 746 728 731 732 734 740 746 749 753 755 760 764 769 773 778 781 784 789 793 795 796 797 800 802 804 805 806 807 810 811 814 816 819 820 820 825 828 830 833 836
737 752 783 787 791 786 748 758 740 720 715 714 722 727 732 735 743 748 752 755 759 763 768 773 777 779 783 787 790 791 792 794 795 797 798 800 801 802 804 807 808 810 813 817 819 823 826 828 832
740 747 781 786 792 778 749 756 737 708 701 704 708 711 721 731 735 739 742 747 752 756 761 766 769 772 774 777 778 781 784 786 787 789 790 792 794 795 797 799 801 803 808 812 816 818 822 824 826
733 748 735 762 762 779 761 740 715 703 701 701 707 713 719 723 728 730 736 742 745 750 752 753 758 760 762 765 771 774 776 779 780 782 784 785 787 789 791 794 795 797 802 807 811 814 816 820 823
714 717 753 757 778 776 759 751 742 719 710 706 710 712 713 714 720 726 731 735 739 741 743 750 752 751 755 762 765 766 767 769 774 776 776 781 783 789 791 793 794 797 796 803 807 810 812 815 818
721 725 727 736 754 773 772 755 723 714 709 709 709 704 705 708 711 716 718 723 726 730 736 740 744 749 751 755 756 759 759 760 766 771 774 778 783 786 781 786 790 793 795 797 801 804 806 809 812
698 705 715 751 749 750 762 741 705 705 703 702 701 697 700 699 701 704 707 711 716 721 727 730 737 742 746 745 746 746 751 755 760 765 767 771 776 775 774 783 786 789 789 794 798 802 804 807 811